Regional Weather Roundup
Issued by NWS

Home | Current Version | Previous Version | Text Only | Print | Product List | Glossary Off
Versions: 1 2 3 4 5 6 7 8 9 10 11 12 13 14 15 16 17 18 19 20 21 22 23 24 25 26 27

000
ASUS45 KTFX 230310
RWRMT
MONTANA REGIONAL WEATHER ROUNDUP
NATIONAL WEATHER SERVICE GREAT FALLS MT
900 PM MDT SUN APR 22 2018

NOTE: "FAIR" INDICATES FEW OR NO CLOUDS BELOW 12000 FEET WITH NO
SIGNIFICANT WEATHER AND/OR OBSTRUCTIONS TO VISIBILITY.

MTZ001>007-043-230400-
WEST OF THE DIVIDE

CITY           SKY/WX    TMP DP  RH WIND       PRES   REMARKS
KALISPELL      FAIR      49  22  34 CALM      30.17R
MISSOULA       FAIR      48  21  34 NW7       30.13R
BUTTE          CLOUDY    44  34  67 W7        30.12R
MULLAN PASS    FAIR      33  20  58 N6        30.16S WCI  28
ANACONDA         N/A     46  28  49 NW7       30.12R
DEER LODGE       N/A     46  21  36 NW6       30.15R
HAMILTON         N/A     50  25  37 MISG      30.11R
PLAINS           N/A     52  23  32 CALM      30.16R
RONAN            N/A     45  25  45 N9        30.16R
$$

MTZ008-052>055-230400-
SOUTHWEST MONTANA

CITY           SKY/WX    TMP DP  RH WIND       PRES   REMARKS
BOZEMAN        CLOUDY    47  43  86 NW9       30.10R
DILLON         LGT RAIN  44  41  89 NE12      30.07R
ENNIS          LGT RAIN  43  39  87 N12       30.12R
W YELLOWSTONE  MOCLDY    45  27  49 CALM      30.00S
THREE FORKS      N/A     53  35  50 NE12      30.08R
TWIN BRIDGES     N/A     46  37  70 N15       30.06R
$$

MTZ009-010-012-014-046-048-049-054-230400-
EAST SLOPES AND CENTRAL MONTANA

CITY           SKY/WX    TMP DP  RH WIND       PRES   REMARKS
CUT BANK       FAIR      41  23  48 NE13      30.20R
GREAT FALLS    MOCLDY    46  21  37 NE12      30.17R
HELENA         CLOUDY    55  20  25 NW8       30.10R
CHOTEAU          N/A     41  19  42 N9        30.20R
WHITE SULPHUR    N/A     46  28  49 E17       30.12
$$

MTZ011-013-016-021-045-047-050-051-230400-
NORTH CENTRAL MONTANA

CITY           SKY/WX    TMP DP  RH WIND       PRES   REMARKS
HAVRE          FAIR      49  26  41 N10       30.16R
LEWISTOWN      CLOUDY    49  24  37 N10       30.15R
N BAR RANCH    CLOUDY    48  23  37 N10       30.16R
CHINOOK          N/A     50  28  43 NW7       30.15R
$$

MTZ017>020-022>027-061-062-230400-
NORTHEAST MONTANA

CITY           SKY/WX    TMP DP  RH WIND       PRES   REMARKS
GLASGOW        FAIR      51  29  42 N9        30.11R
GLENDIVE       FAIR      51  28  41 N9        30.11R
JORDAN           N/A     50  33  52 N9        30.10R
MALTA          CLEAR     50  32  50 N9        30.12R
SIDNEY         FAIR      52  28  39 N12       30.12R
WOLF POINT     FAIR      51  30  44 N9        30.12R
PLENTYWOOD       N/A     48  28  46 N9        30.13R
POPLAR           N/A     52  28  40 NE6       30.13R
SCOBEY           N/A     46  20  36 CALM      30.12R
$$

MTZ028>42-056>058-230400-
SOUTHCENTRAL AND SOUTHEAST MONTANA

CITY           SKY/WX    TMP DP  RH WIND       PRES   REMARKS
BAKER          FAIR      48  34  58 CALM      30.11R
BILLINGS       MOCLDY    56  31  38 NE12      30.04R
LIVINGSTON     CLOUDY    52  37  56 N14       30.07R
MILES CITY     FAIR      56  30  37 NE10      30.07S
BIG TIMBER     CLOUDY    52  32  46 N18G24    30.08S
EKALAKA          N/A     50  24  36 NE3       30.07R
FORSYTH          N/A     55  28  35 NE3       30.07R
LAUREL           N/A     57  28  33 NE17      30.04R
$$

REGIONAL REPORTS...DAKOTAS

CITY           SKY/WX    TMP DP  RH WIND       PRES   REMARKS
WILLISTON      FAIR      49  28  44 NW10      30.11R
MINOT          FAIR      52  34  50 S10       30.09R
DICKINSON      FAIR      52  24  33 NE6       30.09R
BEACH          FAIR      46  25  42 N8        30.15R
CROSBY         FAIR      43  32  65 NW8       30.12R
TIOGA          FAIR      46  32  57 NW7       30.13R
BISMARCK       CLOUDY    56  38  50 SE10      30.12R
GRAND FORKS    CLOUDY    53  46  77 S12       30.10R
FARGO          FAIR      53  38  56 S20G29    30.16R
BUFFALO SD       N/A     54  34  46 NE12      30.02R
RAPID CITY     FAIR      49  38  65 E9        30.09R
$$

REGIONAL REPORTS...WYOMING/IDAHO/WASHINGTON

CITY           SKY/WX    TMP DP  RH WIND       PRES   REMARKS
GILLETTE       FAIR      54  39  57 NE9       30.05R
SHERIDAN       FAIR      58  38  47 CALM      30.05R
BUFFALO WY     FAIR      55  38  52 N7        30.09R
CODY           FAIR      54  30  40 NW6       30.04R
IDAHO FALLS    MOCLDY    59  31  34 CALM      29.93F
SALMON         CLOUDY    56  28  34 N16G28    29.99R
BOISE          FAIR      58  23  26 NW17      30.00F
SPOKANE        FAIR      52  20  28 NW5       30.21R
$$

REGIONAL REPORTS...ALBERTA

CITY           SKY/WX    TMP DP  RH WIND       PRES   REMARKS
CALGARY        PTCLDY    41  18  38 SW6       30.23R
CARDSTON         N/A     43  19  39 E2          N/A
EDMONTON       CLEAR     43  21  42 NW5       30.20R
FORT MCMURRAY  PTCLDY    41  32  70 NW12      30.11R
HIGH LEVEL     PTCLDY    43  27  52 CALM      30.13S
LLOYDMINSTER   PTCLDY    39  30  70 W9        30.15R
MEDICINE HAT   PTCLDY    45  27  49 W9        30.21R
MILK RIVER       N/A     39  27  60 NE12        N/A  WCI  32
PEACE RIVER    PTCLDY    41  25  52 W3        30.20R
PINCHER CREEK  CLOUDY    41  19  42 E7        30.22R
WATERTON GATE    N/A     41  19  42 E2          N/A
$$

REGIONAL REPORTS...SASKATCHEWAN

CITY           SKY/WX    TMP DP  RH WIND       PRES   REMARKS
CORONACH         N/A     41  25  52 NW6         N/A
CYPRESS HILLS    N/A     37  14  38 NW6         N/A
ESTEVAN        PTCLDY    43  28  56 NW7       30.11R
MOOSE JAW        N/A     39  28  65 W9          N/A
PRINCE ALBERT  MOCLDY    43  36  75 NW13G20   30.06R
REGINA         PTCLDY    43  30  61 NW9       30.12R
ROCKGLEN         N/A     45  19  36 N8          N/A
SASKATOON      PTCLDY    43  34  70 W12G18    30.13R
SWIFT CURRENT  CLEAR     39  28  65 N8        30.16R
VAL MARIE        N/A     41  25  52 N10         N/A
$$




USA.gov is the U.S. government's official web portal to all federal, state and local government web resources and services.